Location: Peebles
(55.6412°N, 3.1714°W)
Time: 10:47:10
(UTC+00:00)

CUTE-I - Pass Details

Date: 10 December 2023
Orbit: 807 x 823 km, 98.7° (Epoch: 24 February)

Event Time Altitude Azimuth Distance (km) Brightness Sun altitude
Rises 18:11:10 0° 188° (S) 3,322 ? -19.5°
Reaches altitude 10° 18:13:40 10° 196° (SSW) 2,397 ? -19.9°
Maximum altitude 18:18:35 38° 264° (W) 1,239 ? -20.6°
Drops below altitude 10° 18:23:33 10° 332° (NNW) 2,423 ? -21.3°
Sets 18:26:05 0° 340° (NNW) 3,363 ? -21.6°
